TimeEDT,TemperatureF,Dew PointF,Humidity,Sea Level PressureIn,VisibilityMPH,Wind Direction,Wind SpeedMPH,Gust SpeedMPH,PrecipitationIn,Events,Conditions,WindDirDegrees,DateUTC
12:15 AM,53.6,51.8,94,30.09,10.0,Calm,Calm,-,N/A,,Clear,0,2012-10-24 04:15:00
12:35 AM,53.6,51.8,94,30.09,9.0,Calm,Calm,-,N/A,,Clear,0,2012-10-24 04:35:00
12:55 AM,51.8,50.0,94,30.09,10.0,Calm,Calm,-,N/A,,Clear,0,2012-10-24 04:55:00
1:15 AM,50.0,50.0,100,30.09,5.0,Calm,Calm,-,N/A,,Clear,0,2012-10-24 05:15:00
1:35 AM,50.0,50.0,100,30.09,7.0,Calm,Calm,-,N/A,,Scattered Clouds,0,2012-10-24 05:35:00
1:55 AM,50.0,50.0,100,30.09,8.0,Calm,Calm,-,N/A,,Partly Cloudy,0,2012-10-24 05:55:00
2:15 AM,51.8,50.0,94,30.09,9.0,Calm,Calm,-,N/A,,Clear,0,2012-10-24 06:15:00
2:35 AM,50.0,48.2,94,30.09,10.0,Calm,Calm,-,N/A,,Clear,0,2012-10-24 06:35:00
2:55 AM,50.0,48.2,94,30.10,8.0,Calm,Calm,-,N/A,,Clear,0,2012-10-24 06:55:00
3:15 AM,50.0,48.2,94,30.10,9.0,Calm,Calm,-,N/A,,Clear,0,2012-10-24 07:15:00
3:35 AM,50.0,48.2,94,30.10,6.0,Calm,Calm,-,N/A,,Clear,0,2012-10-24 07:35:00
3:55 AM,50.0,48.2,94,30.10,7.0,Calm,Calm,-,N/A,,Clear,0,2012-10-24 07:55:00
4:15 AM,50.0,48.2,94,30.10,6.0,Calm,Calm,-,N/A,,Clear,0,2012-10-24 08:15:00
4:35 AM,50.0,48.2,94,30.11,7.0,Calm,Calm,-,N/A,,Scattered Clouds,0,2012-10-24 08:35:00
4:55 AM,50.0,48.2,94,30.11,8.0,Calm,Calm,-,N/A,,Mostly Cloudy,0,2012-10-24 08:55:00
5:15 AM,50.0,48.2,94,30.11,7.0,Calm,Calm,-,N/A,,Mostly Cloudy,0,2012-10-24 09:15:00
5:35 AM,50.0,50.0,100,30.12,6.0,Calm,Calm,-,N/A,,Scattered Clouds,0,2012-10-24 09:35:00
5:55 AM,50.0,50.0,100,30.12,7.0,Calm,Calm,-,N/A,,Mostly Cloudy,0,2012-10-24 09:55:00
6:15 AM,50.0,50.0,100,30.12,8.0,Calm,Calm,-,N/A,,Mostly Cloudy,0,2012-10-24 10:15:00
6:35 AM,50.0,50.0,100,30.13,7.0,Calm,Calm,-,N/A,,Scattered Clouds,0,2012-10-24 10:35:00
6:55 AM,50.0,50.0,100,30.13,7.0,Calm,Calm,-,N/A,,Clear,0,2012-10-24 10:55:00
7:15 AM,50.0,50.0,100,30.13,7.0,Calm,Calm,-,N/A,,Partly Cloudy,0,2012-10-24 11:15:00
7:35 AM,50.0,48.2,94,30.14,5.0,Calm,Calm,-,N/A,,Partly Cloudy,0,2012-10-24 11:35:00
7:55 AM,50.0,48.2,94,30.14,3.0,Calm,Calm,-,N/A,,Mostly Cloudy,0,2012-10-24 11:55:00
8:15 AM,50.0,50.0,100,30.15,5.0,Calm,Calm,-,N/A,,Scattered Clouds,0,2012-10-24 12:15:00
8:35 AM,50.0,50.0,100,30.15,5.0,Calm,Calm,-,N/A,,Mostly Cloudy,0,2012-10-24 12:35:00
8:55 AM,55.4,53.6,94,30.15,7.0,Calm,Calm,-,N/A,,Overcast,0,2012-10-24 12:55:00
9:15 AM,57.2,53.6,88,30.15,6.0,Calm,Calm,-,N/A,,Overcast,0,2012-10-24 13:15:00
9:35 AM,57.2,53.6,88,30.15,6.0,Calm,Calm,-,N/A,,Mostly Cloudy,0,2012-10-24 13:35:00
9:55 AM,59.0,53.6,82,30.15,6.0,Calm,Calm,-,N/A,,Partly Cloudy,0,2012-10-24 13:55:00
10:35 AM,60.8,55.4,82,30.15,8.0,Calm,Calm,-,N/A,,Clear,0,2012-10-24 14:35:00
10:55 AM,62.6,55.4,77,30.14,8.0,Calm,Calm,-,N/A,,Clear,0,2012-10-24 14:55:00
11:15 AM,62.6,55.4,77,30.14,9.0,Calm,Calm,-,N/A,,Clear,0,2012-10-24 15:15:00
11:35 AM,64.4,55.4,73,30.14,9.0,Calm,Calm,-,N/A,,Clear,0,2012-10-24 15:35:00
11:55 AM,66.2,57.2,73,30.13,9.0,Calm,Calm,-,N/A,,Clear,0,2012-10-24 15:55:00
12:15 PM,66.2,57.2,73,30.13,9.0,Calm,Calm,-,N/A,,Clear,0,2012-10-24 16:15:00
12:35 PM,66.2,57.2,73,30.12,10.0,Calm,Calm,-,N/A,,Clear,0,2012-10-24 16:35:00
12:50 PM,-9999,-9999,N/A,30.11,-9999.0,Calm,Calm,-,N/A,,Unknown,0,2012-10-24 16:50:00
1:15 PM,69.8,57.2,64,30.11,10.0,Calm,Calm,-,N/A,,Clear,0,2012-10-24 17:15:00
1:30 PM,71.6,57.2,60,30.10,9.0,Calm,Calm,-,N/A,,Clear,0,2012-10-24 17:30:00
1:55 PM,71.6,57.2,60,30.10,10.0,Calm,Calm,-,N/A,,Clear,0,2012-10-24 17:55:00
2:10 PM,71.6,57.2,60,30.09,10.0,Calm,Calm,-,N/A,,Clear,0,2012-10-24 18:10:00
2:30 PM,73.4,57.2,57,30.08,10.0,Calm,Calm,-,N/A,,Clear,0,2012-10-24 18:30:00
2:55 PM,73.4,57.2,57,30.08,10.0,SE,3.5,-,N/A,,Unknown,140,2012-10-24 18:55:00
3:10 PM,73.4,57.2,57,30.08,10.0,East,4.6,-,N/A,,Unknown,100,2012-10-24 19:10:00
3:35 PM,73.4,57.2,57,30.08,10.0,SE,3.5,-,N/A,,Clear,130,2012-10-24 19:35:00
3:50 PM,73.4,57.2,57,30.08,10.0,Calm,Calm,-,N/A,,Clear,0,2012-10-24 19:50:00
4:15 PM,73.4,57.2,57,30.09,10.0,Calm,Calm,-,N/A,,Clear,0,2012-10-24 20:15:00
4:30 PM,73.4,57.2,57,30.08,10.0,ESE,5.8,-,N/A,,Clear,110,2012-10-24 20:30:00
4:50 PM,73.4,57.2,57,30.08,10.0,ESE,5.8,-,N/A,,Clear,120,2012-10-24 20:50:00
5:10 PM,71.6,57.2,60,30.09,10.0,Calm,Calm,-,N/A,,Clear,0,2012-10-24 21:10:00
5:35 PM,69.8,57.2,64,30.09,10.0,Calm,Calm,-,N/A,,Clear,0,2012-10-24 21:35:00
5:50 PM,68.0,57.2,68,30.10,10.0,ESE,4.6,-,N/A,,Clear,110,2012-10-24 21:50:00
6:15 PM,68.0,57.2,68,30.11,10.0,Calm,Calm,-,N/A,,Clear,0,2012-10-24 22:15:00
6:30 PM,66.2,57.2,73,30.11,10.0,Calm,Calm,-,N/A,,Clear,0,2012-10-24 22:30:00
6:55 PM,66.2,57.2,73,30.12,10.0,Calm,Calm,-,N/A,,Clear,0,2012-10-24 22:55:00
7:10 PM,64.4,57.2,77,30.14,10.0,East,6.9,-,N/A,,Clear,90,2012-10-24 23:10:00
7:35 PM,62.6,57.2,82,30.14,9.0,East,4.6,-,N/A,,Clear,90,2012-10-24 23:35:00
7:50 PM,62.6,57.2,82,30.15,8.0,East,4.6,-,N/A,,Clear,80,2012-10-24 23:50:00
8:15 PM,60.8,55.4,82,30.15,7.0,East,3.5,-,N/A,,Clear,80,2012-10-25 00:15:00
8:30 PM,59.0,55.4,88,30.15,6.0,ENE,3.5,-,N/A,,Clear,70,2012-10-25 00:30:00
8:55 PM,59.0,55.4,88,30.16,5.0,Calm,Calm,-,N/A,,Scattered Clouds,0,2012-10-25 00:55:00
9:15 PM,59.0,55.4,88,30.16,5.0,Calm,Calm,-,N/A,,Overcast,0,2012-10-25 01:15:00
9:30 PM,59.0,55.4,88,30.17,5.0,Calm,Calm,-,N/A,,Overcast,0,2012-10-25 01:30:00
10:10 PM,59.0,55.4,88,30.18,5.0,Calm,Calm,-,N/A,,Overcast,0,2012-10-25 02:10:00
10:35 PM,59.0,55.4,88,30.18,4.0,East,3.5,-,N/A,,Overcast,90,2012-10-25 02:35:00
10:50 PM,57.2,55.4,94,30.19,4.0,Calm,Calm,-,N/A,,Unknown,0,2012-10-25 02:50:00
11:15 PM,57.2,55.4,94,30.19,4.0,East,6.9,-,N/A,,Overcast,90,2012-10-25 03:15:00
11:30 PM,57.2,55.4,94,30.19,4.0,East,5.8,-,N/A,,Overcast,90,2012-10-25 03:30:00
11:55 PM,57.2,55.4,94,30.19,4.0,Calm,Calm,-,N/A,,Overcast,0,2012-10-25 03:55:00